[[{"header":{"parameterUnit":"m.s-1","parameterCategory":1,"la1":30.2991,"la2":30.254,"lo1":-89.0895,"lo2":-89.0444,"dy":0.0017,"dx":0.0017,"nx":28,"ny":28,"refTime":"2024-09-28T03:00:00:Z","depth":0,"parameterNumber":2,"parameterNumberName":"U-component_of_WINDS"},"data":[0,0,0,0,0,0,0,0,0,0,0,0,0,0,0,0,0,0,0,0,0,0,0,0,0,0,0,0,0,0,0,0,0,0,0,0,0,0,0,0,0,0,0,0,0,0,0,0,0,0,0,0,0,0,0,0,0,0,4.6743,4.6746,0,4.6969,4.6972,4.6975,4.6935,4.6931,4.6927,4.6923,4.7159,4.7169,4.7179,0,0,0,0,0,0,0,0,0,0,0,0,0,4.6279,4.6288,4.6743,4.6746,4.6749,4.6969,4.6972,4.6975,4.6936,4.6931,4.6926,4.6921,4.7156,4.7168,4.718,0,0,0,0,0,0,0,0,0,0,0,0,0,4.6491,4.6291,4.6743,4.6755,4.6759,4.6968,4.6972,4.6976,4.6937,4.6931,4.6925,4.6919,4.7152,4.7166,4.7181,4.7394,0,0,4.7227,4.7234,0,0,0,0,0,0,0,0,4.6479,4.6508,4.6751,4.6755,4.6759,4.6918,4.6895,4.7116,4.6938,4.6869,4.6923,4.6916,4.7084,4.7104,4.716,4.7405,4.7415,4.7228,4.7237,4.7244,4.7248,0,0,0,0,0,0,0,4.6464,4.6498,4.6833,4.6754,4.6759,4.6751,4.6774,4.6937,4.7008,4.6875,4.6872,4.69,4.7085,4.7145,4.7165,4.7418,4.7228,4.7241,4.7251,4.7256,4.7846,4.7852,0,0,0,0,0,0,4.6445,4.6486,4.6825,4.6839,4.6601,4.6764,4.679,4.6873,4.7006,4.702,4.6904,4.6897,4.7123,4.7148,4.7173,4.7428,4.7244,4.7258,4.7266,4.7839,4.7847,4.7854,0,0,0,0,0,0,4.6435,4.6476,4.6816,4.6662,4.6705,4.6778,4.6872,4.6881,4.6941,4.7028,4.7041,4.6953,4.7119,4.7152,4.7338,4.7436,4.7265,4.7278,4.7831,4.7842,4.7851,4.7941,0,0,0,0,0,0,4.6422,4.6472,4.6553,4.6664,4.6713,4.6977,4.6878,4.6889,4.6966,4.6958,4.7077,4.7091,4.7117,4.7316,4.7353,4.7453,4.729,4.7823,4.7836,4.7848,4.793,4.7953,4.7973,0,0,0,0,0,4.6406,4.6571,4.6558,4.6599,4.6816,4.6983,4.7011,4.7036,4.6974,4.7056,4.7112,4.7087,4.7419,4.7335,4.7377,4.7483,4.7817,4.7832,4.7847,4.792,4.7948,4.7972,0,0,0,0,0,0,4.6472,4.6586,4.6572,4.6779,4.6871,4.6976,4.708,4.7066,4.7179,4.7167,4.7196,4.7223,4.7411,4.7466,4.737,4.7694,4.7609,4.7633,4.7651,4.7679,4.77,4.7682,4.7302,0,0,0,0,0,4.6511,4.6636,4.6729,4.6902,4.6949,4.7007,4.7081,4.7092,4.7189,4.7229,4.7298,4.7395,4.752,4.7603,4.7724,4.7938,4.7962,4.8031,4.8053,4.807,4.809,4.8205,4.8236,4.7904,4.7903,4.7903,0,0,4.6592,4.667,4.6747,4.6918,4.699,4.7119,4.704,4.7181,4.7277,4.7251,4.7429,4.7484,4.7593,4.7793,4.7885,4.7845,4.8188,4.8089,4.8102,4.8113,4.8224,4.8255,4.8283,4.7914,4.7912,4.791,0,0,4.6805,4.6878,4.7028,4.7102,4.7213,4.725,4.7286,4.7393,4.7427,4.7606,4.7588,4.7704,4.7921,4.7999,4.8067,4.8307,4.8288,4.8346,4.8459,4.857,4.8596,4.862,4.8703,4.8733,4.8366,4.8366,4.8367,0,4.6893,4.7086,4.7108,4.725,4.7324,4.7305,4.7457,4.7529,4.7674,4.7726,4.7679,4.7949,4.8021,4.8238,4.8296,4.8353,4.8394,4.8332,4.859,4.8614,4.8636,4.8716,4.8748,4.8373,4.8372,4.8371,4.8371,0,4.7186,4.732,4.7429,4.7567,4.7654,4.7801,4.7846,4.7931,4.7935,4.7977,4.8159,4.8245,4.8382,4.8434,4.8441,4.8652,4.8623,4.8584,4.8498,4.8674,4.8749,4.878,4.8381,4.8379,4.8377,4.8376,0,0,4.7449,4.7595,4.7635,4.7696,4.7815,4.792,4.8065,4.8197,4.8269,4.837,4.8492,4.8675,4.8637,4.8715,4.8729,4.8827,4.9009,4.8775,4.8778,4.8814,4.9245,4.9273,4.9308,4.8998,4.9004,4.9009,4.9235,0,4.7672,4.7926,4.795,4.8179,4.8301,4.8284,4.841,4.8497,4.854,4.8651,4.8699,4.8827,4.877,4.8816,4.8912,4.8967,4.9096,4.8951,4.9111,4.9116,4.9082,4.9348,4.9379,4.9589,4.9265,4.927,4.9274,0,4.7966,4.8072,4.8312,4.8412,4.8465,4.8578,4.8699,4.8806,4.8904,4.8928,4.9013,4.9014,4.9163,4.9073,4.9279,4.918,4.9247,4.9283,4.9292,4.9307,4.9204,4.9368,4.9657,4.9687,4.9321,4.9318,4.9314,0,4.813,4.8334,4.8503,4.8556,4.8678,4.8757,4.8812,4.8904,4.8981,4.9087,4.9137,4.9261,4.9328,4.9424,4.9458,4.939,4.9662,4.9575,4.9685,4.9685,4.9743,4.9738,5.0044,4.9789,4.9789,4.9788,4.9787,0,4.8376,4.8523,4.8578,4.8682,4.8846,4.8872,4.9034,4.9084,4.9166,4.9279,4.9273,4.938,4.9419,4.9533,4.9561,4.9725,4.9757,4.978,4.9785,4.978,4.9776,4.9823,4.9808,4.9796,4.9795,4.9793,4.9791,0,4.8587,4.863,4.8812,4.8911,4.894,4.9056,4.9141,4.9241,4.9281,4.9425,4.946,4.9524,4.9657,4.9701,4.9863,4.9881,5.0073,5.0067,5.0039,5.0039,5.0146,5.0134,5.0491,5.0538,5.0254,5.0256,5.0259,0,4.874,4.8852,4.8962,4.9036,4.9093,4.9214,4.9291,4.9321,4.9402,4.9521,4.9607,4.9738,4.9844,5.0058,5.0119,5.0242,5.0238,5.0354,5.0256,5.0246,5.0237,5.0229,5.0239,5.0372,5.0375,5.0377,5.0379,0,4.9006,4.9021,4.9132,4.925,4.9342,4.9438,4.953,4.9591,4.9634,4.9726,4.986,4.9943,5.0106,5.0236,5.0361,5.0418,5.0406,5.0409,5.0441,5.0436,5.0414,5.0425,5.0087,5.0401,5.0399,5.0397,5.0396,5.0395,4.9191,4.9289,4.9381,4.9504,4.9576,4.9661,4.9759,4.9811,4.9923,5.0056,5.0068,5.0213,5.0306,5.0473,5.0535,5.0649,5.0616,5.0663,5.0674,5.0685,5.0692,5.0397,5.0673,5.0672,5.0672,5.0671,5.0671,0,4.9455,4.9512,4.9626,4.9753,4.985,4.9828,4.9928,5.0011,5.0138,5.0226,5.0329,5.0483,5.0609,5.0679,5.0804,5.0882,5.0879,5.0914,5.0907,5.092,5.0715,5.0674,5.0913,5.0913,5.0913,5.0913,5.0913,5.0913,4.9604,4.9767,4.9792,4.9991,5.0048,5.0188,5.0246,5.0325,5.0395,5.0566,5.0669,5.0713,5.0794,5.0925,5.1039,5.1056,5.1102,5.1139,5.1153,5.096,5.0935,5.0911,5.0873,5.1149,5.115,5.1348,5.135,5.1351]},{"header":{"parameterUnit":"m.s-1","parameterCategory":1,"la1":30.2991,"la2":30.254,"lo1":-89.0895,"lo2":-89.0444,"dy":0.0017,"dx":0.0017,"nx":28,"ny":28,"refTime":"2024-09-28T03:00:00:Z","depth":0,"parameterNumber":3,"parameterNumberName":"V-component_of_WINDS"},"data":[0,0,0,0,0,0,0,0,0,0,0,0,0,0,0,0,0,0,0,0,0,0,0,0,0,0,0,0,0,0,0,0,0,0,0,0,0,0,0,0,0,0,0,0,0,0,0,0,0,0,0,0,0,0,0,0,0,0,0.7254,0.7254,0,0.722,0.722,0.722,0.7155,0.7154,0.7152,0.7151,0.712,0.712,0.712,0,0,0,0,0,0,0,0,0,0,0,0,0,0.7265,0.7265,0.7254,0.7254,0.7253,0.722,0.722,0.7219,0.7155,0.7154,0.7152,0.7151,0.712,0.712,0.712,0,0,0,0,0,0,0,0,0,0,0,0,0,0.7249,0.7265,0.7254,0.7217,0.7213,0.722,0.722,0.7219,0.7156,0.7154,0.7152,0.715,0.7119,0.712,0.712,0.7162,0,0,0.7122,0.7122,0,0,0,0,0,0,0,0,0.725,0.7248,0.7223,0.722,0.7216,0.719,0.7212,0.72,0.7156,0.7178,0.7151,0.7149,0.7145,0.7143,0.7141,0.716,0.7159,0.7122,0.7122,0.7123,0.7123,0,0,0,0,0,0,0,0.7251,0.7249,0.7241,0.7223,0.7218,0.7203,0.7198,0.7209,0.7172,0.7176,0.7171,0.7168,0.7142,0.7141,0.714,0.7158,0.7122,0.7122,0.7123,0.7123,0.721,0.7212,0,0,0,0,0,0,0.7257,0.7251,0.7242,0.724,0.7228,0.7204,0.7199,0.72,0.7172,0.7166,0.7169,0.7165,0.7141,0.7139,0.7138,0.7185,0.7123,0.7123,0.7123,0.7208,0.721,0.7212,0,0,0,0,0,0,0.7257,0.7257,0.7243,0.7244,0.7241,0.7206,0.7207,0.72,0.7199,0.7167,0.716,0.7174,0.7139,0.7138,0.7156,0.7183,0.7123,0.7124,0.7205,0.7208,0.7211,0.7279,0,0,0,0,0,0,0.7258,0.7257,0.7272,0.7245,0.7241,0.7261,0.7209,0.7201,0.7199,0.7193,0.717,0.7164,0.7138,0.7156,0.7157,0.7183,0.7124,0.7203,0.7207,0.721,0.7274,0.7284,0.7292,0,0,0,0,0,0.7259,0.7293,0.7273,0.7273,0.7259,0.7263,0.7261,0.7228,0.7202,0.7217,0.7196,0.7165,0.718,0.7158,0.7159,0.7185,0.7201,0.7206,0.721,0.727,0.7282,0.7292,0,0,0,0,0,0,0.7326,0.7289,0.7267,0.7293,0.7282,0.7252,0.727,0.7242,0.7238,0.7233,0.7193,0.7189,0.7213,0.72,0.7177,0.7224,0.7185,0.719,0.7231,0.7242,0.7251,0.7254,0.7125,0,0,0,0,0,0.7344,0.7349,0.7317,0.7344,0.7339,0.7306,0.7306,0.7282,0.7268,0.7264,0.7245,0.7234,0.7236,0.7238,0.7238,0.7272,0.7266,0.729,0.7299,0.7307,0.7312,0.7329,0.734,0.7227,0.7227,0.7227,0,0,0.7381,0.7362,0.7368,0.7357,0.7345,0.7352,0.7302,0.7312,0.7317,0.7265,0.7282,0.7267,0.7252,0.7279,0.7289,0.7269,0.7341,0.7312,0.7319,0.732,0.7335,0.7346,0.7355,0.723,0.723,0.7229,0,0,0.7453,0.7438,0.7459,0.7448,0.743,0.7408,0.7413,0.7387,0.7375,0.739,0.7352,0.7358,0.7362,0.7353,0.7349,0.7416,0.7388,0.7417,0.7465,0.7482,0.7491,0.7499,0.7524,0.7533,0.7422,0.7422,0.7422,0,0.7502,0.7511,0.7474,0.7486,0.7482,0.7434,0.7455,0.7447,0.743,0.7429,0.7407,0.7411,0.7397,0.7421,0.7437,0.7435,0.7441,0.7421,0.7493,0.75,0.7507,0.753,0.7539,0.7426,0.7426,0.7425,0.7425,0,0.7572,0.7579,0.7598,0.7582,0.758,0.7597,0.7563,0.7566,0.7542,0.7522,0.7538,0.752,0.7516,0.7519,0.7496,0.754,0.7528,0.75,0.7461,0.7522,0.7543,0.7552,0.7432,0.743,0.7429,0.7428,0,0,0.7687,0.765,0.7658,0.765,0.7626,0.7631,0.7645,0.764,0.7644,0.7634,0.7645,0.765,0.7623,0.7618,0.7594,0.7609,0.7664,0.7578,0.7577,0.7596,0.7712,0.7734,0.7745,0.7644,0.7646,0.7647,0.7713,0,0.7755,0.7777,0.7743,0.7773,0.7779,0.7733,0.7746,0.7733,0.7715,0.7718,0.7697,0.7701,0.7665,0.7662,0.7675,0.7655,0.7687,0.7649,0.7656,0.7656,0.7662,0.7756,0.778,0.7843,0.7721,0.7723,0.7724,0,0.7837,0.783,0.786,0.7834,0.7836,0.7848,0.784,0.7843,0.7827,0.7813,0.7807,0.7777,0.779,0.7751,0.7769,0.7744,0.7745,0.7735,0.7737,0.7737,0.7695,0.776,0.7863,0.7873,0.7736,0.7735,0.7734,0,0.7919,0.7917,0.7935,0.7929,0.79,0.7909,0.7897,0.788,0.7879,0.7872,0.7871,0.7866,0.7864,0.7862,0.7831,0.7806,0.7853,0.7811,0.7842,0.7843,0.7856,0.7856,0.7961,0.7854,0.7854,0.7854,0.7854,0,0.7998,0.8019,0.7971,0.7982,0.8004,0.7965,0.7988,0.7972,0.7957,0.7964,0.7924,0.7933,0.7891,0.7895,0.7872,0.789,0.789,0.7879,0.7873,0.7883,0.7885,0.7884,0.7879,0.7856,0.7856,0.7855,0.7855,0,0.8094,0.8063,0.8079,0.8049,0.8042,0.806,0.8034,0.8044,0.8022,0.8032,0.8032,0.7999,0.8001,0.797,0.7967,0.7951,0.7981,0.7966,0.7986,0.7982,0.8015,0.8013,0.8125,0.8138,0.8022,0.8023,0.8024,0,0.8148,0.8162,0.8133,0.8135,0.8125,0.8128,0.8127,0.8089,0.8089,0.8072,0.8084,0.8083,0.808,0.8087,0.8062,0.806,0.8045,0.8085,0.8045,0.8055,0.8047,0.8047,0.8049,0.8094,0.8095,0.8096,0.8097,0,0.8246,0.823,0.8228,0.8222,0.822,0.8214,0.8204,0.8208,0.8167,0.8169,0.8171,0.8169,0.8165,0.8164,0.8157,0.8145,0.8115,0.811,0.8117,0.8129,0.814,0.8135,0.801,0.8108,0.8107,0.8106,0.8105,0.8105,0.8323,0.8334,0.8315,0.8315,0.8304,0.8296,0.8303,0.8282,0.8282,0.8275,0.8253,0.8259,0.8243,0.8229,0.822,0.8225,0.8205,0.8216,0.8218,0.8222,0.8228,0.8138,0.8223,0.8223,0.8222,0.8222,0.8222,0,0.842,0.8406,0.8406,0.8393,0.8393,0.8363,0.8351,0.8353,0.8358,0.8345,0.8343,0.8345,0.8345,0.832,0.8316,0.8325,0.8311,0.8325,0.8325,0.8323,0.8245,0.824,0.8337,0.8337,0.8337,0.8337,0.8336,0.8336,0.8471,0.8488,0.8469,0.848,0.8465,0.847,0.8466,0.8458,0.8448,0.8451,0.845,0.8434,0.8416,0.8411,0.8409,0.8402,0.8403,0.8423,0.8411,0.8339,0.8328,0.8318,0.8312,0.8423,0.8423,0.8488,0.8489,0.8489]}]]